Theta_e
328 329 331 332 334 334 335 335 336 339 339 340 339 340 341 340 340 339 342 342 340 339 338 337 336 335 338 339 340 341 340 341 342 342 342 342 341 336 335 336 343 346 343 343 345 347 349 350 346 345 344 342 341 340 338 336 338 338 339 338 339 339 340 341 340 340 339 341 340 340 340 344 345 344 343 343 340 342 345 343 343 341 340 341 340
327 328 329 331 330 334 335 335 335 333 335 337 337 338 339 341 341 341 342 342 342 342 340 340 339 337 337 337 339 338 339 338 338 341 341 341 343 347 349 341 337 342 344 344 345 345 347 348 347 344 343 342 340 338 338 338 336 338 338 335 337 334 336 341 341 338 340 333 334 338 338 346 344 343 340 341 345 341 342 344 344 342 340 340 341
325 327 328 329 330 332 333 335 335 335 335 335 337 337 338 338 339 340 341 341 342 343 342 340 342 341 339 340 340 338 341 341 340 341 345 343 343 345 346 348 346 344 342 346 345 345 344 346 347 345 343 342 339 339 339 339 338 337 336 335 332 334 335 335 335 338 335 335 336 334 328 331 334 336 341 344 344 344 345 342 343 340 337 339 340
323 325 327 328 330 331 331 332 334 335 334 334 336 336 337 338 339 340 341 342 342 343 343 344 344 342 342 343 342 341 340 342 344 345 343 343 344 347 347 346 344 341 339 338 344 345 341 341 346 345 342 342 341 340 340 339 338 337 336 336 335 331 332 332 334 332 336 338 327 326 330 327 325 327 333 345 343 343 341 338 339 339 339 341 340
322 325 326 327 329 329 331 332 334 333 334 333 335 336 335 336 338 339 339 341 342 342 343 344 343 342 342 343 343 342 342 342 340 339 341 342 342 345 344 343 342 341 341 338 343 340 339 340 345 345 344 342 343 341 340 339 339 339 338 335 335 333 331 334 335 334 336 340 335 330 329 324 322 332 334 334 339 338 336 335 336 337 337 345 347
320 322 325 327 328 330 331 332 332 333 333 335 337 337 337 336 337 339 339 340 340 341 343 343 341 341 339 337 336 336 335 336 335 336 338 339 339 343 343 342 342 342 342 339 334 341 340 342 346 344 343 342 341 341 341 341 339 338 339 338 338 336 332 331 331 334 334 338 339 338 340 329 329 333 329 325 338 342 340 337 337 340 339 339 343
320 323 325 326 328 328 330 330 331 331 332 336 337 337 337 338 338 339 339 339 340 340 340 342 340 341 340 338 338 337 335 338 340 341 341 343 344 343 343 344 342 342 342 341 341 339 340 341 344 345 343 342 342 341 339 339 339 339 341 338 338 337 336 330 331 333 333 333 335 338 339 340 333 330 327 331 326 335 340 340 340 340 341 340 339
321 322 324 326 326 328 328 330 332 331 333 335 335 336 335 336 337 338 340 341 341 342 341 343 339 340 339 339 339 339 338 339 341 342 344 342 339 342 342 343 343 342 343 341 340 339 343 345 345 345 344 343 342 340 339 339 340 341 340 340 340 338 336 333 332 334 330 330 335 337 337 338 333 333 334 327 330 326 330 338 343 338 340 339 340
320 320 322 323 326 327 330 330 331 332 334 333 334 335 335 336 337 332 339 339 340 340 342 341 342 341 341 341 339 339 340 340 342 341 342 343 341 341 341 340 341 343 343 342 341 339 340 343 345 345 344 343 342 342 342 340 339 340 338 338 339 338 337 336 334 332 332 331 331 335 336 336 332 332 334 334 332 327 327 330 332 337 338 337 337
319 321 321 323 325 328 331 331 330 332 334 334 334 335 335 336 334 335 336 338 340 340 341 341 341 342 340 340 338 340 341 343 343 342 341 341 338 338 341 342 341 342 343 343 342 340 339 340 343 344 344 344 342 341 342 341 341 341 340 339 340 338 339 337 334 334 334 333 332 336 334 334 333 337 338 336 332 333 326 329 330 329 327 335 341
318 320 321 323 326 327 330 329 330 332 333 333 333 334 335 335 333 334 336 340 339 338 338 339 340 341 340 340 339 338 340 340 339 339 340 339 338 339 340 340 341 340 342 343 343 342 341 340 340 340 343 344 344 343 342 342 342 342 342 343 341 340 338 337 335 335 335 333 334 333 335 335 334 335 336 336 334 329 331 330 331 331 329 329 334
319 318 319 322 323 327 329 327 329 330 331 331 332 333 333 333 333 332 331 335 337 337 338 339 341 341 340 340 339 340 340 338 337 336 338 337 338 339 341 341 341 341 341 341 342 342 342 342 342 341 341 343 341 343 344 344 344 344 343 341 340 340 340 338 335 333 334 333 333 335 337 339 339 337 337 336 336 333 333 331 328 330 330 329 332
318 319 322 322 324 325 326 326 328 328 329 330 330 332 333 332 331 331 332 334 335 338 335 337 338 339 340 340 339 341 340 340 339 338 339 339 339 339 341 339 339 338 340 339 340 341 341 341 343 342 340 343 343 343 343 344 344 344 343 341 340 339 337 335 334 333 334 332 332 337 340 340 337 338 340 338 338 339 337 331 330 328 327 327 331
318 320 321 323 326 325 326 325 326 328 328 330 330 331 331 330 331 330 331 333 334 335 336 335 337 339 339 340 340 341 340 340 340 339 339 340 340 340 339 337 338 338 339 339 341 341 341 342 343 343 342 342 344 343 343 343 344 342 342 341 341 340 339 337 335 335 335 334 335 336 337 336 338 340 340 341 339 337 334 331 331 329 328 328 336
317 319 321 323 323 324 324 325 326 327 329 329 329 330 330 330 330 330 330 332 333 334 335 335 337 338 338 341 341 339 338 341 342 340 340 340 340 339 339 341 340 339 339 342 342 340 340 341 341 341 342 342 343 343 344 344 344 342 341 341 340 340 339 338 336 335 334 334 335 335 338 340 339 339 340 340 341 339 338 335 332 329 331 331 332
320 322 322 322 322 323 324 325 326 327 326 328 328 330 330 331 331 331 330 332 333 333 334 335 336 338 337 338 338 339 339 339 340 340 341 340 339 340 339 340 341 343 342 340 342 341 339 339 339 340 340 342 342 341 341 342 341 341 340 340 339 340 337 337 335 334 334 334 334 337 337 336 339 340 341 342 341 342 341 341 339 332 327 324 329
319 321 319 321 322 324 325 325 325 327 327 327 329 329 330 330 330 329 330 331 332 333 334 334 336 335 336 337 337 338 338 336 338 337 339 340 339 338 338 340 341 342 339 340 341 340 339 339 338 339 339 340 340 339 339 340 338 338 338 338 337 339 337 336 336 334 334 334 334 336 337 337 338 342 340 339 343 342 342 342 340 337 334 329 326
320 321 321 320 321 322 323 322 322 322 325 326 327 330 330 332 329 328 328 329 330 331 332 334 333 334 334 335 336 336 337 337 337 336 338 339 340 338 338 337 337 339 339 341 340 340 340 338 337 337 337 336 336 337 336 337 337 336 336 337 336 337 337 336 336 335 334 334 335 336 337 337 339 339 338 340 341 343 343 341 340 338 338 332 330
320 320 320 320 320 321 320 321 323 323 325 324 326 327 328 331 330 330 328 330 331 331 331 332 333 332 332 334 334 335 336 337 337 336 337 335 334 336 336 337 338 338 338 337 339 338 339 339 337 336 335 335 334 335 336 336 335 333 333 335 336 336 335 334 335 334 334 334 333 334 336 336 338 338 338 340 342 342 342 342 341 341 340 337 334
318 320 320 320 320 320 319 319 320 320 322 326 327 326 327 329 327 328 330 329 327 328 332 332 333 332 331 334 334 330 331 332 336 336 336 335 336 335 333 335 337 338 338 339 337 337 338 337 338 336 334 335 334 335 335 335 336 333 333 333 335 336 334 333 333 334 334 333 333 333 334 335 337 337 338 340 342 343 342 341 340 340 339 340 337
320 320 319 319 320 320 321 320 321 322 324 324 325 326 326 326 326 324 326 326 327 328 327 328 331 331 331 330 332 333 333 333 334 335 334 336 336 336 336 336 335 335 336 336 336 334 335 336 337 335 333 332 333 332 333 335 334 333 332 332 333 336 335 334 333 333 333 332 332 333 333 335 337 336 336 341 342 341 342 342 341 339 339 339 338
318 319 319 317 318 320 321 321 323 322 323 323 323 326 325 327 325 325 321 320 322 324 324 326 329 328 326 329 330 332 332 332 332 333 333 333 335 335 336 337 335 336 336 333 332 335 336 335 334 335 334 333 332 332 332 333 334 334 334 335 335 336 334 333 332 331 331 332 331 331 333 333 335 334 335 339 341 341 340 339 340 339 337 337 340
321 323 321 320 319 320 319 319 319 321 321 322 323 323 323 327 327 326 323 323 324 327 325 327 328 329 327 328 330 330 331 331 330 331 331 331 332 333 334 333 333 333 334 333 334 334 332 332 333 334 334 334 334 332 333 332 331 331 332 333 334 334 334 333 331 330 330 330 330 331 331 332 335 333 334 338 340 339 339 336 334 336 335 339 341
322 322 322 321 321 321 320 320 320 321 321 320 322 321 324 326 323 322 323 324 324 323 321 322 323 326 328 327 328 330 329 330 329 330 329 330 331 333 332 332 331 333 331 336 333 331 333 333 333 332 333 333 333 336 333 331 331 329 329 330 332 333 334 334 333 331 331 330 329 330 331 332 333 333 334 338 341 340 339 338 338 337 339 337 339
319 320 320 320 320 319 320 320 319 319 319 320 320 320 321 321 321 321 321 322 321 323 322 320 324 323 328 330 327 327 328 328 328 330 329 329 330 330 331 328 330 329 328 329 330 330 330 330 331 331 332 332 333 333 333 331 331 331 329 327 329 331 331 331 332 333 334 331 330 329 331 331 332 334 337 339 340 337 338 338 338 337 339 340 337
318 317 318 319 318 319 319 318 319 319 317 318 319 320 321 322 323 325 322 323 323 329 322 325 326 324 326 327 328 328 327 328 327 328 328 328 329 328 328 330 327 326 326 328 327 327 327 326 326 326 328 329 331 332 333 332 331 331 329 330 330 329 329 329 331 333 333 332 331 329 331 334 331 333 333 337 338 338 335 338 337 338 336 336 334
315 316 318 319 318 318 319 319 319 318 318 318 318 318 319 320 322 320 320 322 326 328 328 328 321 325 325 326 326 326 326 326 327 327 328 327 327 328 326 325 326 324 324 324 324 323 324 325 325 325 323 323 324 326 330 331 331 330 330 329 329 329 330 332 331 331 332 332 332 333 331 333 332 331 331 329 330 330 334 336 336 336 335 333 330
315 316 316 316 318 319 319 319 319 317 317 318 318 318 318 318 318 319 319 321 324 324 323 321 323 325 325 324 327 326 325 326 326 326 326 327 326 326 325 326 325 324 323 322 322 322 323 323 322 321 320 320 320 322 321 318 317 320 330 332 329 329 329 330 331 331 332 332 333 333 332 334 333 332 334 335 334 332 334 332 335 335 334 332 331
313 314 315 316 317 318 318 318 318 318 317 317 316 318 318 318 317 318 320 320 322 322 321 321 323 323 322 325 324 322 324 325 324 324 326 324 324 327 325 325 324 325 324 322 321 321 320 320 319 318 317 317 318 318 317 312 310 315 322 328 331 329 330 328 327 328 331 330 330 333 332 330 330 328 325 327 327 331 332 331 334 333 331 330 330
310 312 314 315 316 317 317 318 318 316 315 315 316 316 316 316 318 318 320 321 321 321 319 319 318 320 324 319 323 324 323 324 323 323 325 327 322 324 325 324 322 323 323 322 320 320 319 318 317 316 315 315 314 313 311 304 302 308 316 323 329 333 334 330 330 330 328 328 327 324 326 325 320 318 315 310 308 309 315 327 332 332 331 330 329
312 311 313 315 316 316 316 316 317 317 316 316 316 316 317 317 318 318 318 320 318 320 319 320 317 318 319 319 320 320 322 319 322 322 320 320 321 323 322 323 323 324 323 321 320 318 318 317 316 315 313 313 312 311 302 296 297 298 311 321 327 331 332 330 330 329 327 324 322 320 319 319 316 313 310 305 304 303 304 304 305 309 318 329 330
310 312 313 314 314 316 316 315 316 317 317 315 316 316 316 315 317 316 317 318 320 319 318 318 317 318 317 316 320 318 317 319 319 317 318 318 318 317 316 317 319 323 321 321 320 318 317 317 316 314 313 312 311 307 296 296 297 296 301 316 324 327 330 331 330 330 327 322 319 318 319 319 316 314 312 310 307 304 302 302 303 304 303 301 305
310 311 312 314 313 314 317 317 316 316 315 316 317 316 315 315 318 318 320 320 317 317 316 316 315 315 315 323 317 316 316 318 318 318 322 317 320 316 317 316 317 321 322 319 318 318 316 316 314 313 313 312 309 303 295 296 297 297 297 307 322 327 328 329 330 327 324 321 320 321 321 318 318 320 318 313 311 309 306 306 309 311 310 307 300
313 314 314 315 315 316 317 318 318 317 316 318 319 316 318 325 318 317 319 317 314 314 315 314 314 314 315 317 316 315 315 316 317 319 322 318 316 316 316 317 320 317 319 318 318 316 315 314 314 313 313 312 310 303 295 295 296 296 299 307 326 327 328 327 327 326 323 321 322 320 318 318 319 318 316 316 316 314 316 320 316 313 310 309 306
316 317 315 320 325 324 320 319 317 317 320 320 318 317 321 316 319 316 315 316 315 314 315 315 314 314 318 319 314 314 314 316 318 316 319 316 316 316 317 317 317 316 318 315 315 315 315 314 313 313 312 311 310 298 294 294 295 296 300 309 321 322 321 320 323 323 323 322 321 320 319 319 318 318 319 319 320 321 320 315 310 307 304 302 301
316 319 321 322 318 324 321 321 320 319 319 318 319 320 317 315 315 315 315 315 316 313 312 315 314 314 313 316 315 315 318 315 315 317 315 313 315 316 315 315 316 317 317 318 315 316 314 313 312 312 311 309 309 297 294 294 294 294 302 316 316 317 318 318 318 318 320 320 320 321 321 320 319 315 306 301 313 321 316 312 308 306 303 301 299
319 319 321 323 324 324 326 323 321 318 317 319 319 318 317 315 314 314 314 315 314 313 311 315 314 314 314 314 314 314 317 315 316 315 311 314 313 313 315 316 313 315 316 316 314 315 314 314 313 311 309 307 308 300 293 293 294 293 305 317 316 314 314 314 316 318 319 320 320 319 319 317 313 309 301 295 304 316 314 311 309 306 305 302 300
317 319 321 321 320 321 323 320 320 319 319 319 318 318 315 315 314 313 312 313 312 312 312 312 312 313 313 313 314 312 313 313 313 311 313 312 314 316 313 313 314 315 316 315 314 314 314 312 312 310 308 306 307 303 293 293 294 293 303 317 315 314 313 313 312 313 313 315 319 320 319 313 311 308 296 295 303 313 313 311 309 306 304 302 301
315 315 314 315 323 321 318 319 319 316 317 319 318 317 314 313 314 313 313 312 312 311 312 311 313 313 312 313 314 314 313 312 311 316 315 312 313 314 313 314 317 315 317 314 313 312 311 313 312 310 308 306 306 304 295 292 293 293 301 313 316 313 312 312 312 311 311 310 309 310 313 311 310 302 295 296 302 315 313 311 310 308 306 303 303
314 314 317 317 317 317 317 318 316 318 319 318 318 316 316 314 312 313 313 312 312 313 311 313 316 318 319 320 314 313 314 315 313 316 316 312 312 313 314 313 313 312 312 312 312 312 312 311 312 311 309 308 307 306 300 292 293 294 294 307 317 314 311 311 313 312 310 309 308 307 304 294 294 295 295 295 301 306 313 313 312 309 306 304 305
314 313 313 313 314 315 314 315 316 318 317 316 316 316 315 314 315 313 313 314 314 314 314 314 315 314 313 313 314 313 315 316 315 316 316 311 312 313 315 313 312 312 314 313 312 312 311 311 311 310 309 308 306 306 302 292 293 294 293 297 315 313 314 313 312 311 309 307 306 305 304 297 294 295 296 296 299 303 308 315 313 311 310 309 308
313 315 314 320 313 316 317 315 316 317 317 317 316 314 314 314 314 315 316 315 314 313 316 315 313 311 313 313 314 313 314 314 316 316 315 313 311 311 312 313 313 313 313 314 312 312 310 311 310 309 309 306 305 302 303 296 292 293 293 293 312 315 313 314 312 310 308 306 305 304 302 297 294 295 296 297 298 299 301 311 310 302 300 301 313
315 315 313 313 314 314 313 316 315 316 315 315 315 314 314 317 315 316 316 315 314 317 313 313 312 311 315 313 314 313 312 311 312 316 315 314 312 310 310 312 313 313 312 311 311 310 311 310 310 309 308 307 306 303 297 300 294 292 292 294 293 304 298 314 313 309 307 304 304 302 302 298 294 295 296 297 298 298 303 301 296 298 298 300 307
312 313 314 314 316 318 315 316 315 315 315 315 316 314 314 314 315 317 317 317 317 315 313 312 315 313 314 313 312 312 311 311 312 313 313 313 313 312 311 313 315 313 311 310 310 309 309 308 307 308 307 307 306 305 299 295 297 291 293 293 294 295 299 312 310 307 306 305 303 301 298 293 293 294 294 296 297 299 299 295 296 296 298 303 310
316 316 318 316 314 316 317 316 316 318 316 315 315 314 313 313 315 316 314 314 314 313 314 313 313 312 313 313 312 312 311 311 310 310 309 310 310 312 310 311 312 311 310 308 308 308 307 308 308 307 307 306 306 304 303 298 295 293 293 294 296 297 298 300 306 306 304 301 296 292 292 294 294 294 294 295 295 295 294 295 296 298 310 307 308
314 315 316 313 313 314 315 314 313 314 316 316 315 315 314 314 315 315 314 314 314 313 313 312 311 312 310 309 310 311 309 310 311 309 310 311 311 310 309 311 310 310 309 308 307 306 306 307 306 307 307 306 305 304 304 305 304 300 296 293 294 296 298 298 299 298 294 292 292 292 293 294 296 298 302 302 301 299 294 294 295 303 307 306 306
314 317 318 316 314 312 312 313 314 315 315 315 317 315 315 316 315 315 314 314 313 312 312 312 314 311 312 311 312 312 310 310 310 309 309 310 311 311 310 310 309 309 308 308 307 306 306 306 305 306 307 306 305 306 305 305 306 304 302 301 300 299 298 297 300 299 299 300 300 300 296 294 294 294 296 296 297 297 300 302 303 305 305 307 307
318 319 319 317 316 312 312 313 313 317 316 316 315 315 314 316 315 315 314 314 313 311 310 309 310 312 313 310 309 305 308 308 308 309 308 308 308 309 309 309 308 308 307 307 307 306 306 305 303 304 305 306 305 305 305 305 306 306 305 305 305 304 303 302 302 302 303 303 299 297 298 301 300 300 299 299 300 303 302 301 304 306 306 304 308
317 318 318 315 315 313 314 314 315 316 316 316 317 315 315 318 315 314 314 313 312 310 311 312 311 310 310 309 309 309 307 308 309 308 311 309 308 309 309 310 313 312 310 309 308 308 309 309 304 304 304 305 304 305 307 297 299 297 304 307 306 304 304 304 304 298 304 304 303 302 299 298 297 298 298 301 302 304 303 305 308 304 304 304 303
319 318 317 317 317 318 317 315 315 316 315 314 316 316 316 317 314 314 315 313 312 310 310 309 309 309 309 308 309 309 308 307 307 308 307 305 295 295 308 311 307 297 294 296 299 304 302 307 308 307 305 305 306 305 294 293 293 293 292 294 298 299 299 301 298 296 300 301 302 298 298 297 298 298 299 299 301 302 303 300 300 297 300 301 301
318 317 317 316 317 317 316 315 316 316 315 315 315 315 315 315 314 314 312 310 310 309 308 308 308 307 306 308 308 308 308 307 307 308 310 305 304 301 292 294 297 295 293 292 292 292 291 293 306 305 299 294 296 293 292 292 293 293 293 294 295 296 296 295 294 299 301 302 300 298 298 298 297 299 299 300 301 302 300 300 301 300 303 302 300
Wind_Speed
4 5 5 5 5 6 6 7 8 8 6 7 8 8 9 9 8 8 6 6 6 6 4 5 5 4 2 3 3 3 3 2 1 1 1 3 4 4 4 4 3 5 4 4 3 2 1 1 2 2 3 4 5 3 6 8 3 1 3 5 7 6 4 3 4 3 4 2 3 3 3 3 3 2 3 3 5 6 4 3 3 4 4 4 4
5 3 4 3 5 5 5 6 8 9 7 6 7 7 7 7 8 8 6 6 5 4 5 4 4 4 4 3 3 3 3 2 1 1 1 3 3 1 1 3 4 4 6 6 5 3 2 1 2 3 3 2 3 4 6 6 6 4 3 3 3 3 8 5 5 4 1 2 2 2 2 0 1 3 3 3 2 5 6 2 2 4 5 6 5
5 4 5 5 5 6 5 5 6 6 7 8 7 7 6 6 6 6 6 6 6 5 5 5 4 5 4 3 4 3 2 3 2 2 1 1 1 2 1 1 2 2 3 6 5 4 2 1 2 3 4 4 3 4 5 5 5 4 5 3 4 6 5 9 10 8 1 3 2 1 2 1 2 3 2 1 2 4 4 2 5 3 5 4 5
6 7 7 6 6 5 5 5 6 6 6 6 5 6 5 5 5 6 4 4 5 6 5 5 6 6 4 3 3 2 3 4 4 3 3 2 2 2 1 1 2 3 4 4 6 5 4 3 3 3 4 4 4 4 4 6 7 5 4 4 4 3 5 6 2 11 11 4 3 2 1 2 1 4 3 1 2 3 3 5 6 6 4 2 3
3 6 7 8 7 7 6 6 6 7 6 6 5 4 5 5 5 5 4 4 4 5 3 3 6 6 5 4 3 3 3 3 2 3 4 5 3 3 3 3 4 4 3 5 6 7 6 6 5 4 4 5 4 4 4 4 7 7 6 4 6 6 4 2 3 5 12 5 5 2 2 1 3 1 2 2 2 3 5 6 5 4 4 2 1
1 8 8 7 7 7 7 7 6 6 6 5 4 5 5 5 4 5 4 4 3 3 4 4 4 4 5 5 4 4 4 4 5 5 5 5 6 5 5 5 5 4 4 5 3 8 7 6 5 5 5 4 4 4 3 3 6 8 8 7 5 5 4 5 5 6 6 8 5 5 3 1 3 2 2 2 2 2 2 3 3 4 4 3 3
10 16 9 8 6 8 7 7 7 7 6 4 3 4 5 4 4 3 4 4 3 3 3 2 2 3 3 3 3 4 4 4 4 4 4 3 3 5 5 5 6 5 5 5 5 5 7 8 7 5 5 5 4 4 4 4 5 6 6 7 7 6 6 5 6 3 6 6 6 4 3 3 4 2 2 0 1 1 2 2 2 3 3 1 1
12 10 8 7 8 7 8 8 6 7 7 6 5 5 5 5 4 3 2 2 3 3 3 3 2 2 3 3 3 2 2 2 2 3 3 4 3 3 4 3 4 5 4 5 6 5 5 7 6 5 5 5 5 5 5 5 4 4 6 6 5 5 7 6 5 4 3 3 6 4 3 2 4 4 3 3 1 1 3 1 0 0 1 1 2
11 10 8 7 7 8 7 7 8 7 6 6 5 5 5 3 4 1 3 2 3 2 1 1 1 1 1 1 2 2 2 2 2 3 4 3 4 5 5 4 4 5 5 5 5 6 4 6 7 6 5 6 5 5 5 6 7 6 6 6 6 5 5 5 3 4 3 5 6 5 3 3 4 6 3 4 0 1 2 2 2 1 1 3 3
13 10 10 8 7 6 6 7 8 7 5 6 5 5 4 4 3 4 4 2 3 3 2 2 2 2 2 2 3 2 1 1 1 1 4 4 3 4 5 5 5 6 5 5 5 6 6 4 6 7 7 6 6 5 6 6 6 6 6 7 6 7 5 5 7 5 4 6 7 6 3 3 3 1 0 2 4 1 5 2 1 1 3 2 2
12 10 9 9 6 6 6 7 6 6 5 5 4 4 4 4 4 3 4 1 2 1 2 2 2 2 2 3 3 3 3 2 2 2 2 4 6 5 5 5 5 5 5 5 5 5 5 5 4 6 6 6 5 6 6 7 6 6 5 5 6 7 6 6 6 6 4 5 7 7 6 5 4 2 1 1 3 3 3 2 2 2 2 3 3
10 10 10 10 8 7 6 6 6 5 5 6 4 4 4 4 3 3 5 2 2 1 2 1 2 2 3 3 3 2 2 2 3 4 3 4 4 4 4 3 4 5 5 5 5 5 5 5 4 4 5 7 8 6 6 6 6 6 5 6 5 5 5 6 7 7 6 5 7 8 6 3 2 4 4 3 4 3 4 2 3 1 1 4 5
12 10 9 9 9 7 7 6 6 5 6 6 6 5 5 4 6 4 5 5 3 2 2 2 2 2 2 2 2 2 2 3 3 3 3 3 3 3 2 2 2 4 5 5 5 6 5 5 4 4 4 6 7 7 5 6 6 7 7 7 6 7 7 7 7 8 7 6 5 7 5 3 5 3 3 4 3 5 2 3 4 4 3 3 3
10 8 9 7 5 6 7 7 7 5 6 5 6 5 4 4 4 4 3 5 3 2 2 2 2 2 2 2 2 1 2 2 2 3 3 3 3 3 3 5 5 4 4 5 5 5 4 4 4 4 4 5 7 7 7 7 6 7 7 8 8 7 7 8 8 7 7 7 6 7 5 6 5 4 3 4 3 2 2 4 2 3 4 4 1
11 9 10 9 9 7 6 5 6 6 7 7 5 4 4 5 5 5 3 2 3 3 2 2 2 2 2 2 1 1 2 2 2 2 3 3 3 3 3 3 3 4 4 2 4 5 5 4 4 4 5 5 4 6 6 6 6 6 7 8 6 6 7 7 7 7 8 8 7 8 7 5 6 6 5 3 3 3 3 3 3 2 2 2 2
9 8 7 7 6 6 6 5 4 6 8 6 6 5 4 4 3 3 4 3 4 3 2 2 2 2 2 1 1 1 2 2 2 2 2 3 3 3 4 3 2 2 2 3 4 4 4 5 5 6 6 5 2 2 4 5 4 5 5 6 7 5 6 8 8 7 8 8 8 8 8 6 4 4 3 3 3 3 3 3 2 2 3 2 3
11 9 8 7 5 5 3 3 2 3 5 6 6 5 5 4 3 3 4 3 2 2 3 2 2 1 1 2 1 2 2 2 1 2 2 1 2 4 4 4 3 2 3 4 3 4 5 5 5 6 6 5 3 3 3 4 5 5 5 6 6 5 7 8 8 7 8 8 7 9 8 7 5 3 4 5 4 3 4 4 4 4 3 3 2
11 10 10 11 9 7 4 4 5 7 9 9 8 6 4 4 4 5 4 3 3 4 3 2 2 2 2 2 2 2 1 2 2 2 2 1 2 2 3 3 3 4 4 4 3 4 5 7 5 6 5 5 5 4 5 4 4 5 6 7 8 9 8 7 7 8 8 8 7 8 8 7 6 5 5 4 4 3 4 4 4 4 4 3 2
10 11 10 9 8 8 8 8 4 6 11 13 9 9 6 3 4 3 2 3 3 1 2 1 2 1 1 1 2 2 2 2 2 2 2 3 3 3 4 3 3 4 4 5 5 6 5 4 5 5 5 5 5 6 6 6 7 7 7 7 8 8 9 10 9 9 9 8 8 9 10 7 6 6 5 5 5 4 5 4 5 5 3 2 1
9 8 9 10 8 8 9 8 9 11 15 11 9 6 4 3 1 4 3 1 1 1 2 2 1 1 2 1 2 3 3 3 2 2 2 2 1 2 5 6 4 3 3 4 5 6 5 5 5 5 5 5 6 6 6 7 7 7 6 7 9 10 12 12 10 9 8 9 9 11 10 8 6 6 6 5 5 5 4 5 5 5 4 2 2
8 8 8 9 7 6 6 7 9 14 12 12 7 6 5 8 8 4 2 5 3 4 4 3 2 2 2 1 2 2 3 2 2 2 3 2 2 1 1 2 3 3 3 4 5 7 7 5 7 7 6 6 6 7 6 6 7 8 8 9 9 11 12 11 10 10 10 10 10 11 12 10 7 7 7 6 5 5 5 5 4 3 4 4 3
11 10 9 8 8 7 6 7 10 11 10 11 9 5 5 4 4 4 6 4 6 6 6 6 3 2 1 1 2 2 2 2 3 2 3 3 2 2 2 1 2 2 2 3 6 5 5 6 6 6 7 6 7 8 8 7 6 8 10 8 10 11 12 12 10 11 11 9 10 11 12 11 9 9 8 7 6 6 5 5 2 3 4 4 4
6 6 11 12 14 14 14 14 15 13 10 7 5 6 5 3 3 3 5 5 3 1 1 3 2 2 1 0 1 2 2 2 3 3 3 3 3 3 2 2 2 3 3 4 5 4 6 7 5 6 7 6 7 9 8 8 9 9 9 9 9 10 10 11 12 13 13 12 12 12 12 11 8 9 8 7 7 7 6 6 7 5 4 1 4
7 6 4 5 6 9 12 16 14 10 6 7 7 7 5 4 5 5 4 3 3 3 4 5 4 4 4 1 1 2 2 2 3 3 3 3 3 2 2 2 3 3 4 1 4 5 5 4 6 8 8 8 7 2 4 8 8 8 9 11 9 9 10 9 10 12 12 12 11 11 11 10 9 8 8 7 7 7 6 6 6 3 7 5 3
10 6 5 5 6 7 8 7 7 8 9 6 7 7 7 9 7 6 5 5 5 3 1 3 1 0 0 0 1 1 1 3 3 2 3 3 3 3 2 4 3 4 4 4 3 4 4 5 5 6 7 6 4 4 5 6 8 8 10 10 9 8 7 9 10 10 9 10 12 11 10 12 10 9 7 7 7 7 5 4 6 7 2 2 5
10 8 7 8 7 7 5 3 6 7 9 10 9 8 5 3 4 3 3 4 4 1 3 1 2 3 2 1 2 2 2 2 3 3 3 3 2 3 3 2 4 4 3 3 3 5 5 6 6 7 8 8 8 7 5 7 9 8 10 9 8 10 10 11 10 9 9 8 7 11 7 2 3 5 3 3 2 2 4 5 6 5 4 4 5
8 9 8 8 9 9 10 10 10 11 10 10 10 9 7 7 6 7 6 5 2 1 1 1 0 1 2 2 1 2 3 3 3 3 3 3 2 3 4 4 4 4 4 4 5 6 6 8 8 8 9 10 10 10 9 8 3 8 12 11 10 10 12 10 10 10 6 5 5 6 4 3 6 5 5 3 5 9 5 2 5 5 5 6 5
4 4 9 9 9 11 11 12 13 13 11 10 10 8 10 7 8 9 9 5 3 2 1 1 1 1 2 2 1 2 2 2 2 3 3 2 3 2 3 2 3 3 4 6 6 7 7 7 9 8 8 8 8 8 8 8 8 8 7 9 11 10 12 10 10 8 7 8 9 7 4 4 6 7 7 7 7 6 7 3 3 4 5 5 5
8 11 10 10 11 11 10 10 9 10 10 10 10 12 11 8 11 9 8 7 4 3 2 1 1 2 2 2 1 1 1 2 3 2 1 2 3 2 2 2 2 2 3 5 6 7 8 8 8 8 9 8 7 7 6 8 9 8 6 8 6 8 11 9 10 13 9 4 1 3 7 5 5 8 9 9 7 7 7 5 3 3 4 5 5
11 11 13 13 12 11 11 11 10 12 13 12 9 7 8 7 6 6 6 5 5 4 3 3 3 2 2 3 2 0 1 2 2 3 1 0 2 1 1 2 2 2 2 3 5 6 7 7 7 7 7 7 6 5 9 15 12 8 7 7 7 8 9 9 11 9 8 7 6 2 1 9 10 11 13 12 11 11 10 5 3 3 4 5 5
10 9 11 11 12 13 13 12 11 10 10 9 8 9 7 7 4 8 7 6 6 4 4 2 2 2 3 3 2 2 2 3 3 1 0 3 2 2 2 1 2 1 2 3 4 5 5 6 6 7 7 5 5 5 12 13 14 13 7 6 7 8 10 8 8 11 8 9 8 7 5 10 10 9 12 17 15 14 14 13 14 13 9 4 4
10 9 10 14 14 13 13 12 12 12 12 12 9 9 9 9 5 10 8 7 5 3 2 2 4 3 4 4 2 3 3 3 3 4 3 2 4 3 4 4 3 1 3 2 3 4 4 5 4 5 5 5 5 8 14 14 14 14 8 6 7 7 7 8 10 11 8 10 9 8 7 6 9 8 8 13 15 17 17 15 15 14 14 14 10
7 7 7 10 15 13 13 12 13 13 12 13 11 10 9 7 3 7 5 4 6 4 3 3 3 4 3 1 2 4 3 2 3 2 1 1 1 3 2 3 4 2 0 2 3 3 3 4 4 5 4 4 4 8 13 14 14 14 10 6 7 7 8 11 9 8 10 11 10 9 8 7 9 15 12 11 12 13 14 18 15 14 15 15 13
4 4 4 5 6 10 12 12 9 10 12 10 9 8 6 2 4 8 6 6 6 5 4 4 5 5 4 2 2 3 3 3 3 2 1 2 2 2 3 3 2 3 2 3 4 4 4 4 4 4 4 3 4 8 13 14 14 14 12 7 3 2 4 5 8 9 12 12 11 9 9 9 8 9 9 10 9 13 11 10 10 9 8 10 13
4 3 4 4 2 3 6 10 10 9 7 7 7 7 3 5 3 6 6 5 4 3 4 5 5 3 2 1 3 4 4 2 1 3 2 2 2 2 2 2 3 4 1 4 3 2 2 2 3 3 3 3 3 9 12 14 14 14 14 8 6 3 6 5 5 5 6 11 11 10 9 10 10 8 8 11 6 7 10 11 11 11 9 8 8
2 3 3 2 4 1 5 6 6 7 7 7 6 4 5 7 6 6 5 4 3 5 5 3 4 3 3 2 3 2 2 3 2 2 2 3 2 2 2 4 3 2 3 2 4 1 1 1 2 2 2 3 3 8 12 13 13 14 13 7 8 7 5 6 7 7 2 4 10 9 8 9 10 8 6 6 4 8 11 12 12 11 11 9 9
1 2 2 3 2 2 2 5 5 6 7 5 5 7 6 7 6 5 5 4 4 4 4 3 3 4 4 4 4 3 1 2 2 2 3 2 5 4 3 2 5 4 5 2 3 1 1 0 1 1 2 2 3 6 10 11 12 14 10 6 7 8 7 7 6 5 5 3 6 7 7 8 9 8 6 6 8 15 10 12 12 12 10 10 8
2 2 2 2 1 1 2 6 6 6 6 7 7 5 6 5 6 6 6 4 5 6 6 5 4 3 5 4 4 3 3 0 3 3 3 6 2 1 2 5 2 3 2 2 2 1 1 1 1 2 3 2 4 5 9 9 11 13 10 6 5 6 6 6 6 6 6 5 8 14 12 9 8 7 8 9 9 12 11 11 12 12 11 10 7
3 4 6 2 2 2 4 7 6 8 8 7 7 6 8 7 5 5 5 5 5 7 6 4 3 3 4 6 4 3 1 1 2 1 1 4 2 1 3 4 1 2 1 1 3 3 2 1 1 1 2 2 3 3 8 8 9 11 9 5 4 4 6 5 5 6 6 6 8 10 11 8 8 7 10 9 9 11 10 11 10 10 10 9 6
6 5 4 3 5 4 3 4 6 6 7 8 9 9 7 6 6 5 4 5 5 5 6 4 2 2 2 1 6 5 3 2 2 1 1 4 3 1 2 2 3 4 3 4 3 2 1 1 1 1 1 2 2 1 5 8 8 9 10 5 1 4 5 3 4 4 5 5 7 7 7 7 11 12 10 10 11 12 11 10 9 9 9 9 8
4 4 1 4 7 6 6 6 6 6 7 7 7 5 6 6 5 6 6 5 5 4 3 3 3 4 4 3 4 4 4 2 1 1 1 6 3 2 1 2 4 6 3 4 3 3 1 1 1 1 0 0 2 3 2 6 7 8 9 6 2 2 3 3 4 4 3 5 6 5 3 6 11 11 12 13 13 14 12 10 10 9 7 10 10
5 1 2 1 8 7 5 6 6 7 6 5 5 5 4 5 4 4 3 4 4 5 3 2 3 4 3 7 6 6 4 2 0 1 2 3 5 3 2 3 4 5 3 1 2 1 3 2 2 2 1 1 2 4 3 2 5 6 7 6 1 1 1 2 4 4 5 4 5 4 4 5 11 12 14 15 17 16 14 8 10 14 14 13 8
5 5 4 3 4 9 8 6 6 7 6 6 7 7 5 3 4 4 4 4 4 2 4 5 5 5 6 8 6 7 4 3 2 1 1 1 5 5 3 3 4 3 3 2 2 3 2 2 3 4 2 1 1 1 5 3 4 6 4 2 1 1 2 3 3 5 5 5 4 5 5 8 12 12 13 16 17 17 13 10 16 16 14 14 10
6 3 4 8 5 3 8 7 6 7 8 7 6 5 5 4 4 4 3 3 3 3 4 5 2 4 9 7 9 7 5 3 3 2 1 1 1 3 6 4 2 2 1 2 2 4 5 4 3 2 3 2 2 1 2 3 5 7 4 4 5 4 5 6 7 6 6 6 6 5 6 11 12 12 13 14 15 14 11 13 14 15 13 7 3
5 2 6 6 5 5 4 5 5 6 7 8 8 7 7 7 6 6 6 5 4 4 5 4 3 3 7 9 7 6 6 4 6 4 3 2 2 2 3 4 4 5 4 3 4 6 6 3 2 1 2 3 2 1 2 1 9 10 8 11 13 14 13 14 9 6 6 6 7 9 12 13 13 13 14 14 13 12 13 12 12 12 9 2 3
4 4 4 5 5 5 4 5 7 7 6 6 8 9 9 9 7 5 4 5 6 7 5 4 4 3 4 5 6 8 9 6 6 7 7 6 6 5 4 4 4 3 4 4 4 5 3 2 2 2 2 3 3 2 3 1 6 10 10 12 14 15 15 15 13 10 11 11 10 10 11 10 9 8 8 7 7 7 9 10 9 6 2 2 2
5 4 2 5 5 7 8 7 6 7 7 7 8 9 8 7 6 6 5 5 7 5 4 3 2 3 3 3 3 2 5 8 7 5 6 7 8 7 6 5 4 4 4 4 4 5 4 2 3 3 2 4 4 3 3 3 5 7 7 8 10 11 14 14 10 7 8 7 6 5 6 9 10 12 11 10 9 7 7 5 3 1 2 4 4
4 3 3 4 5 7 6 6 6 5 4 4 5 5 5 5 6 6 7 8 7 4 5 5 5 2 2 4 5 6 6 4 6 6 5 5 8 10 7 7 6 5 4 3 5 5 3 3 4 4 4 3 4 3 4 4 6 6 5 5 6 6 6 7 8 5 5 6 6 6 7 6 6 6 6 5 4 4 4 3 3 2 1 4 7
5 5 3 4 4 6 6 7 5 6 6 4 4 5 6 5 8 8 8 8 4 5 4 4 4 4 4 4 5 6 6 4 4 6 3 3 4 4 7 6 5 4 5 4 6 5 3 3 5 5 5 4 4 4 2 2 6 5 5 5 5 6 6 5 8 9 6 4 4 5 5 6 5 6 5 4 3 2 3 4 3 5 3 4 5
4 4 5 5 5 4 5 6 6 7 7 7 5 5 5 6 8 9 8 6 6 6 5 3 3 4 5 5 4 3 6 6 5 5 7 4 8 11 5 7 4 7 13 10 7 2 1 4 3 3 1 3 4 4 4 9 11 10 6 4 7 10 9 9 10 12 6 4 4 5 5 5 5 4 4 4 4 4 3 5 5 4 4 3 3
4 5 6 6 5 6 6 6 5 6 8 7 5 6 7 7 9 8 7 7 7 6 5 4 4 4 6 5 4 4 5 5 4 4 5 6 5 8 12 11 13 9 9 12 10 6 5 7 5 3 6 8 14 12 9 10 11 10 8 9 14 15 15 13 13 9 4 4 4 5 5 5 5 5 5 5 5 4 6 5 5 4 3 5 5
Wind_Direction
149 116 108 125 137 132 130 133 138 134 139 138 128 135 145 138 139 137 143 147 154 150 160 149 150 154 184 166 153 145 147 145 170 149 241 316 277 170 158 174 190 176 178 185 198 219 225 122 101 81 62 81 104 92 91 114 176 186 295 323 318 314 288 273 256 239 257 294 261 227 220 182 216 205 234 230 179 208 226 209 238 200 180 198 195
135 118 119 171 158 141 145 136 138 132 140 135 128 126 130 134 136 140 148 154 147 147 136 146 161 159 162 163 162 160 150 160 184 233 230 222 282 322 125 163 210 189 177 184 190 189 194 173 148 143 119 103 111 115 124 150 168 147 90 5 316 308 292 283 247 227 266 231 250 327 334 323 271 216 225 226 224 95 279 250 226 234 196 203 199
154 163 172 192 168 163 147 138 125 128 132 131 130 132 130 129 133 136 150 156 153 153 159 156 151 139 171 158 161 153 169 168 174 160 117 240 178 286 125 215 237 232 208 165 174 161 165 236 194 138 135 135 145 153 161 144 138 130 135 141 320 316 325 313 346 301 317 275 191 79 248 38 313 317 264 216 258 184 183 210 253 233 234 186 187
169 183 191 175 183 154 135 134 137 133 129 125 133 134 134 130 133 136 139 137 137 162 161 152 150 149 170 159 149 176 167 174 172 148 158 221 212 185 153 332 264 237 219 202 151 156 163 194 217 171 146 157 154 165 176 150 136 137 173 148 120 335 339 313 342 325 301 32 322 234 201 173 205 231 215 282 249 266 200 221 213 226 252 216 206
179 208 182 186 172 159 159 143 154 146 139 135 150 148 139 133 136 133 133 132 138 135 150 151 148 163 159 174 172 189 197 173 145 206 195 181 196 174 208 196 239 244 246 253 165 156 178 199 194 168 155 163 162 167 189 167 140 139 157 158 172 171 157 237 289 237 273 185 221 349 329 304 257 158 150 271 257 250 239 235 230 201 203 221 158
161 269 205 183 165 148 144 157 140 126 131 138 134 133 127 131 135 134 120 131 157 138 152 153 169 169 166 166 178 192 192 197 197 204 185 207 194 185 191 203 215 229 239 245 229 151 169 198 199 166 163 166 168 165 178 131 143 147 164 169 182 165 161 177 238 268 279 295 238 195 172 196 348 332 184 255 258 217 277 289 356 21 54 42 343
197 221 194 171 158 154 155 155 147 139 131 136 127 105 117 110 119 125 144 135 126 139 150 159 175 177 185 198 195 188 201 179 196 192 178 173 201 183 182 189 214 212 208 238 268 188 174 185 189 174 169 176 168 156 171 176 165 161 152 156 183 162 160 198 230 261 319 292 265 234 248 226 207 220 261 328 264 312 315 318 327 19 357 2 275
196 192 190 157 171 169 162 152 146 139 149 145 142 141 129 134 144 135 100 88 122 154 154 153 206 172 187 200 208 231 217 224 191 160 173 149 177 207 168 188 222 223 215 231 231 252 181 178 177 174 169 177 173 178 177 184 178 155 160 170 171 173 165 195 215 223 223 279 294 263 226 245 278 280 263 268 154 251 294 238 147 347 255 271 276
213 193 174 182 176 181 156 152 138 148 147 143 145 138 129 158 135 131 129 145 142 130 142 175 225 292 244 217 216 209 227 222 223 178 161 198 211 194 186 189 210 229 223 221 228 234 238 181 179 179 182 181 186 179 178 173 184 180 167 171 183 194 179 191 201 228 217 263 289 288 280 243 232 231 242 241 131 259 285 271 295 328 295 275 259
226 196 180 181 187 178 164 135 146 156 150 147 141 147 143 128 114 184 130 197 145 146 180 217 193 217 252 243 250 252 221 245 235 235 158 174 188 236 219 200 206 206 212 226 227 231 235 232 183 190 187 180 186 195 178 176 184 190 182 187 183 189 192 194 207 213 219 255 269 268 240 256 280 314 310 49 8 337 253 248 207 271 299 288 278
200 193 177 182 171 187 161 147 162 153 153 148 150 148 149 143 144 180 107 81 91 154 191 209 203 245 238 241 248 250 249 253 256 234 220 174 204 209 215 217 211 211 196 208 216 230 240 230 226 198 188 185 190 198 196 182 185 189 181 178 183 187 189 202 216 224 228 254 261 255 242 220 211 210 217 146 147 216 254 223 244 218 198 305 286
202 204 181 167 182 187 144 165 166 166 170 160 168 147 162 155 148 151 140 184 135 170 224 255 258 235 244 260 267 267 264 257 243 248 235 242 226 207 188 221 215 206 200 197 202 218 222 235 223 219 193 178 197 203 196 184 178 181 177 186 191 194 192 200 211 223 225 235 257 258 243 256 243 189 197 214 201 220 236 193 206 220 299 232 277
190 208 162 166 178 175 168 176 179 181 208 166 176 172 176 155 156 202 161 152 170 197 194 239 244 253 256 255 255 264 270 261 259 260 255 256 248 247 179 204 241 235 210 202 200 203 209 221 223 221 209 182 183 194 199 192 182 186 185 187 191 193 199 209 212 219 224 227 249 253 240 236 244 238 201 205 217 222 250 262 199 173 180 305 265
200 198 157 153 139 163 176 188 182 201 211 191 194 175 180 158 167 203 137 141 168 186 226 240 231 233 254 255 268 274 280 281 277 267 261 252 248 243 213 205 207 232 236 213 202 209 210 213 212 228 239 207 188 191 195 198 191 192 190 193 196 199 195 209 224 218 228 239 248 261 227 220 236 240 223 204 226 256 258 253 246 180 180 214 257
205 198 163 152 170 167 179 193 190 197 212 208 199 196 170 185 198 164 163 155 172 197 218 231 260 252 230 250 274 316 296 280 273 278 287 280 276 266 259 252 209 233 230 251 206 206 217 214 211 222 236 242 207 189 191 186 185 195 194 196 198 197 204 207 224 227 229 236 244 251 246 228 214 219 223 233 222 233 234 247 251 272 181 186 207
185 131 139 158 164 173 194 196 215 209 218 218 190 214 179 211 183 164 160 194 168 206 222 251 262 281 319 318 292 263 249 277 295 304 336 323 297 275 275 269 253 222 223 229 222 217 219 221 220 224 226 228 140 163 176 168 167 195 205 195 204 196 208 217 223 230 239 239 243 249 242 243 235 227 234 221 213 231 253 247 244 246 264 231 180
194 147 149 145 150 188 181 104 265 251 240 229 219 205 198 213 157 126 180 194 192 191 225 234 250 287 294 277 291 308 303 299 302 299 288 233 310 305 298 284 274 274 257 239 218 200 211 207 207 212 218 221 212 175 196 184 179 200 209 203 205 206 217 224 220 224 237 241 241 246 238 230 235 223 217 217 210 208 217 237 229 230 213 250 254
177 169 150 152 176 188 174 186 183 242 249 231 217 199 195 233 121 216 182 202 189 208 196 218 225 240 268 288 295 295 312 318 314 310 315 295 253 266 265 281 304 280 261 255 231 227 210 204 201 203 193 197 213 196 196 206 192 202 210 210 211 211 216 227 227 229 235 238 242 242 237 228 220 221 225 210 205 213 210 226 232 228 237 220 242
170 161 146 155 176 180 192 187 178 268 263 242 213 215 191 189 200 233 147 196 229 202 242 227 253 219 254 311 323 329 314 301 337 354 347 323 322 294 272 254 223 234 243 257 250 244 228 202 202 204 198 209 208 209 199 203 204 208 212 219 220 212 211 219 223 224 234 236 236 244 238 230 217 221 225 212 198 202 214 218 228 231 241 211 247
170 160 156 158 180 187 191 194 181 211 239 240 227 221 188 132 214 228 214 239 265 215 221 250 242 272 279 282 298 317 326 328 332 338 331 322 304 336 335 326 317 274 255 251 252 243 229 220 216 209 202 208 218 209 206 210 204 215 206 215 219 216 215 218 221 220 227 229 229 236 237 229 218 217 220 209 194 199 202 205 221 214 215 191 180
174 168 148 147 178 202 200 206 212 216 223 224 209 223 180 165 201 211 240 215 174 214 222 216 206 193 213 273 336 321 304 294 299 315 309 305 324 81 251 290 308 314 312 305 285 274 263 229 209 221 212 203 203 208 208 216 216 221 217 226 227 218 218 219 219 223 226 230 232 231 234 227 212 214 215 199 197 202 196 205 227 215 193 189 187
201 180 150 158 184 196 225 242 249 220 201 206 206 201 226 189 197 193 221 229 213 204 220 198 168 117 226 294 278 298 297 297 302 308 303 313 336 341 336 292 318 295 307 294 305 319 316 306 290 245 216 216 214 209 194 193 212 223 224 217 226 222 220 224 219 225 229 231 231 233 233 233 215 213 214 204 196 206 189 193 248 242 203 198 188
87 104 149 162 169 178 197 203 213 218 206 204 218 206 204 188 180 184 227 224 243 248 78 51 69 111 82 30 298 293 305 302 301 299 298 317 346 347 341 347 341 348 342 340 315 314 316 313 300 289 276 234 216 222 212 192 200 211 223 224 221 228 228 224 224 224 226 230 232 228 228 228 219 211 212 204 195 201 182 170 190 231 274 227 101
134 133 124 138 147 161 188 187 200 193 192 212 216 222 180 181 195 206 193 231 243 207 216 196 184 188 170 173 356 313 305 313 303 309 309 326 328 323 342 339 356 353 334 51 294 312 294 299 307 312 307 306 296 349 225 227 226 205 206 221 226 225 233 238 236 234 231 234 239 230 226 230 221 216 207 197 195 198 186 192 144 128 209 224 125
137 162 166 164 164 177 188 178 193 203 192 206 219 237 200 189 197 202 207 172 201 207 232 314 326 104 51 182 223 236 286 302 297 284 295 307 313 328 329 347 1 352 9 346 347 346 335 329 321 301 293 293 288 250 179 207 227 229 237 227 220 227 229 242 242 245 254 251 245 238 217 225 224 223 203 196 195 188 199 188 140 161 134 112 112
149 168 197 187 186 183 169 174 222 211 216 203 211 231 237 229 181 186 198 223 214 176 111 174 303 359 344 253 284 291 283 285 301 320 321 325 320 319 343 5 8 1 358 352 348 351 343 331 328 331 332 329 326 317 296 178 191 210 229 250 247 232 224 228 241 245 241 246 284 284 278 323 3 350 321 322 349 277 190 171 136 135 127 109 106
193 177 181 182 183 184 193 193 209 210 208 211 207 204 205 213 201 187 185 229 164 78 174 233 137 296 291 307 356 326 350 352 340 328 319 295 314 353 340 7 8 2 353 359 3 358 350 338 346 0 357 352 347 339 337 344 290 222 208 212 217 230 245 239 231 233 244 252 252 247 242 173 147 154 129 220 313 311 308 208 140 127 126 123 129
175 176 182 194 188 190 196 191 205 214 207 207 199 191 216 206 215 186 182 173 140 156 200 280 16 330 324 335 344 4 10 344 345 302 288 335 350 348 7 351 348 352 13 1 6 358 352 0 7 2 355 347 340 338 348 349 344 332 289 221 211 216 234 228 239 244 239 240 238 213 203 201 148 137 138 135 145 207 247 247 137 126 122 122 117
180 184 189 195 188 192 200 208 218 216 225 231 203 191 216 201 206 188 147 150 154 153 152 193 226 269 265 291 6 209 65 321 273 291 337 24 352 349 336 347 331 352 32 14 8 360 357 5 5 1 351 344 338 347 354 347 327 314 311 302 262 229 227 203 218 230 213 158 9 283 198 199 134 124 132 141 146 152 182 216 112 118 122 127 127
225 198 187 191 198 201 203 205 210 220 221 220 218 223 224 230 194 158 144 150 159 145 163 185 211 248 273 269 269 4 220 230 270 258 260 174 229 201 117 352 323 360 20 33 25 355 1 3 3 358 355 347 346 345 340 330 314 292 298 289 281 243 218 209 213 209 171 166 148 181 157 115 110 112 114 109 93 76 70 72 112 138 144 127 123
230 215 184 188 197 195 203 210 205 219 237 229 227 217 220 230 171 145 149 158 159 161 165 150 287 263 286 292 255 254 261 267 260 254 88 261 285 35 27 313 321 66 69 54 31 3 7 14 359 356 1 355 348 344 338 328 322 299 280 273 264 256 230 214 221 223 188 152 147 143 153 120 109 99 100 106 100 92 89 80 71 61 50 79 139
227 213 189 186 194 193 197 199 204 208 224 230 220 218 217 221 199 156 162 166 155 153 168 167 200 216 234 253 265 260 268 288 309 305 296 353 10 10 345 335 333 10 68 72 55 26 8 10 360 356 9 0 347 350 341 332 324 308 292 264 250 248 250 219 213 211 172 155 149 150 157 147 123 127 124 108 105 107 104 98 88 75 63 52 53
249 240 227 189 185 194 195 197 197 202 213 221 218 221 231 216 223 136 132 133 131 163 174 224 244 254 245 228 255 266 269 259 267 293 334 44 313 307 321 335 333 9 94 64 60 38 20 9 349 347 6 9 351 347 339 330 327 319 316 287 242 249 235 227 211 183 153 152 152 157 152 146 135 129 119 118 118 119 118 115 101 81 61 47 37
270 270 246 232 212 191 186 183 193 206 208 211 210 222 230 224 175 130 135 161 175 173 174 218 237 231 233 210 235 265 276 272 254 239 265 17 8 348 5 330 325 326 292 93 64 54 50 7 339 340 350 11 356 347 337 332 333 329 335 344 286 252 257 199 175 169 155 152 150 145 152 139 128 122 120 118 130 130 134 107 81 70 58 36 30
265 274 299 326 293 177 164 166 184 201 194 191 215 221 175 217 202 138 160 186 184 181 181 206 210 219 204 234 269 255 253 270 356 33 33 339 351 29 322 283 289 258 96 86 88 83 49 336 337 344 335 357 354 353 343 337 340 340 339 8 8 37 78 42 80 113 150 144 139 139 140 135 131 132 133 134 164 155 111 101 92 78 67 54 37
328 6 5 350 324 190 156 158 164 186 189 197 202 214 194 208 180 192 168 174 186 190 212 216 208 168 214 217 231 239 265 268 290 346 5 341 31 35 356 345 314 308 104 116 101 98 245 330 13 341 329 334 334 3 350 343 345 348 344 27 26 23 33 84 87 79 32 132 128 131 133 126 116 99 39 97 171 121 106 104 101 93 83 71 59
357 348 323 326 310 306 170 146 148 163 172 186 195 199 209 202 186 196 205 175 174 213 217 196 199 188 196 217 228 242 360 9 1 359 342 11 47 13 330 220 255 250 138 141 122 169 148 302 16 354 347 326 318 1 353 351 346 355 351 30 33 41 33 33 40 66 68 56 88 105 107 110 106 100 81 56 108 115 107 106 105 100 93 88 79
279 268 233 243 288 255 163 128 139 158 174 175 192 181 208 217 194 185 195 178 176 206 213 219 216 189 172 197 227 239 234 307 357 347 41 63 46 18 308 297 307 307 100 96 150 169 63 24 10 342 358 330 312 4 359 357 352 357 350 30 28 46 51 29 38 40 54 58 87 96 107 103 94 96 88 81 127 123 116 113 110 107 104 100 100
202 258 274 197 132 171 190 154 159 170 183 177 179 189 209 205 185 191 177 177 185 208 210 214 202 235 206 179 177 159 37 61 267 278 99 113 79 351 328 314 5 309 61 204 234 156 132 160 77 59 339 327 322 342 354 352 2 359 1 346 40 56 58 39 35 47 42 54 55 53 64 88 107 100 90 83 104 122 116 117 116 111 112 114 122
253 246 226 193 124 132 215 166 174 184 169 186 185 188 213 202 176 180 182 189 191 207 219 194 204 238 250 140 112 119 167 210 284 9 56 114 118 82 284 312 320 283 229 218 205 121 126 102 124 161 210 324 323 337 348 342 5 359 4 345 346 78 79 75 57 68 67 62 65 66 54 60 84 92 88 90 110 125 119 121 121 114 117 126 148
250 258 89 185 162 167 195 194 181 187 186 195 208 205 199 179 166 173 185 190 185 185 204 232 219 227 197 138 130 113 97 101 219 277 309 118 129 120 12 295 285 278 294 52 48 61 97 166 141 111 75 38 357 322 360 356 4 7 4 13 338 67 117 105 105 98 85 83 82 72 63 52 83 88 91 92 104 125 128 128 123 130 136 143 147
268 234 185 225 134 159 173 190 185 173 179 189 184 204 208 170 167 187 187 193 203 199 187 209 223 231 223 137 120 116 128 123 320 271 260 154 136 146 184 254 248 271 287 142 113 180 222 160 141 142 151 140 65 19 303 353 18 9 7 3 5 164 122 146 137 102 88 82 79 70 41 62 83 90 95 93 93 92 90 88 113 124 137 147 135
264 164 170 190 224 160 176 189 182 165 180 197 189 188 183 140 172 185 195 213 217 183 185 218 237 215 103 118 123 125 133 182 180 252 271 204 145 152 179 228 265 246 246 162 186 238 235 196 189 145 138 113 112 72 314 284 42 25 4 35 257 251 236 216 161 106 102 103 85 83 84 86 83 84 92 96 95 93 88 110 115 112 114 117 121
272 269 168 159 254 183 165 170 159 167 180 187 184 167 161 183 211 193 213 192 167 170 200 228 189 120 120 142 137 152 159 168 152 164 265 293 242 162 170 194 178 324 243 185 200 226 229 210 181 148 145 143 120 134 289 296 57 37 17 92 111 133 161 117 110 113 114 117 108 101 103 97 90 85 84 89 91 94 107 107 106 112 109 102 121
274 217 123 134 199 260 143 148 158 181 180 183 170 175 169 196 204 192 201 177 169 198 219 216 144 137 140 150 147 158 168 160 153 178 187 221 270 237 187 178 165 189 223 219 226 223 225 197 119 135 158 138 135 141 242 46 75 64 57 80 87 90 97 107 102 91 99 94 112 122 113 102 101 99 96 89 86 93 101 101 104 109 114 170 206
248 273 167 191 194 231 240 198 183 196 190 181 168 173 184 196 198 186 190 178 182 203 207 178 159 167 180 213 181 162 159 170 176 173 182 192 210 209 222 160 187 189 201 224 247 249 229 151 135 175 160 142 137 170 236 200 92 81 70 74 84 90 89 87 95 103 107 108 114 117 114 114 109 109 100 99 101 100 94 96 94 92 108 260 175
223 238 216 184 209 209 214 211 194 185 181 164 163 174 188 186 183 178 180 217 219 194 157 128 146 166 147 178 216 190 175 174 178 184 202 191 198 204 192 162 185 193 196 221 234 256 240 161 151 155 174 160 155 163 207 180 121 98 98 99 93 95 103 103 100 111 106 109 106 94 90 89 90 87 92 101 105 110 100 82 83 124 238 256 132
226 239 216 222 204 235 250 230 202 173 160 169 169 185 208 179 167 185 198 208 219 159 152 158 156 160 175 180 206 205 194 194 194 179 212 224 198 187 174 167 194 189 193 200 237 247 249 145 154 164 195 162 141 177 203 176 133 130 130 127 122 120 115 116 116 116 108 110 109 109 94 84 87 85 87 86 86 94 120 148 198 186 114 69 76
200 215 241 226 220 229 233 242 207 161 164 186 197 181 210 182 165 188 204 207 167 131 123 124 132 164 208 234 213 179 175 212 211 170 156 43 334 224 156 174 172 182 187 201 222 224 266 156 162 169 183 165 168 171 188 108 101 114 145 156 138 130 130 121 126 126 124 119 107 98 100 103 103 111 111 118 146 177 211 198 139 98 83 81 81
191 221 220 218 216 225 237 243 218 171 160 180 198 211 207 182 180 199 193 146 132 130 134 170 183 196 211 221 230 189 183 198 224 192 132 82 35 25 73 123 84 84 100 90 82 73 327 270 128 73 110 188 157 138 172 91 85 84 84 115 138 129 122 130 136 139 141 132 121 117 118 122 135 142 149 164 177 195 160 107 100 116 117 109 134
181 200 217 218 208 214 238 244 225 169 165 170 191 210 221 209 191 189 155 151 143 145 155 174 183 218 219 210 203 219 211 195 201 233 148 135 115 49 26 74 116 112 106 108 114 131 50 9 107 108 46 48 125 131 102 92 85 79 74 109 124 125 133 143 153 152 166 147 151 143 145 153 167 177 182 187 190 157 137 144 132 143 171 168 186